[[{"header":{"parameterUnit":"m.s-1","parameterCategory":1,"la1":30.2992,"la2":30.254,"lo1":-89.0895,"lo2":-89.0443,"dy":0.0025,"dx":0.0025,"nx":19,"ny":19,"refTime":"2026-04-10T09:00:00:Z","depth":0,"parameterNumber":2,"parameterNumberName":"U-component_of_WINDS"},"data":[0,0,0,-6.2119,-6.2121,-6.2166,-6.2166,-6.2266,-6.2267,0,0,0,0,0,0,0,0,0,0,0,-6.213,-6.2131,-6.2119,-6.2121,-6.2166,-6.2166,-6.2265,-6.2267,0,0,0,0,0,0,0,0,0,0,0,-6.2129,-6.2131,-6.2133,-6.2121,-6.2166,-6.2166,-6.2265,-6.2216,0,0,0,0,0,0,0,0,0,0,-6.2165,-6.2198,-6.213,-6.2133,-6.2122,-6.2166,-6.2166,-6.2213,-6.2219,-6.2262,0,-6.2306,0,-6.2289,-6.2276,-6.2276,0,0,0,-6.2103,-6.2193,-6.2184,-6.2133,-6.2122,-6.2166,-6.2141,-6.2216,-6.2223,-6.2271,-6.2307,-6.231,-6.229,-6.2277,-6.2278,-6.2586,-6.2588,0,0,-6.21,-6.2151,-6.2179,-6.2189,-6.2184,-6.2139,-6.2142,-6.222,-6.2263,-6.2308,-6.2311,-6.2292,-6.2278,-6.2279,-6.2583,-6.2586,0,0,0,-6.2105,-6.215,-6.2137,-6.2187,-6.2192,-6.2141,-6.2145,-6.2259,-6.2251,-6.2312,-6.2293,-6.2279,-6.228,-6.2581,-6.2584,-6.2746,0,0,0,-6.2103,-6.2152,-6.2137,-6.2169,-6.2191,-6.2226,-6.2184,-6.2246,-6.2253,-6.2292,-6.2279,-6.2282,-6.2578,-6.2583,-6.2736,-6.2813,0,0,0,-6.2119,-6.2154,-6.2169,-6.2171,-6.2193,-6.2223,-6.2219,-6.2246,-6.2243,-6.2277,-6.2282,-6.2576,-6.2582,-6.2727,-6.2798,-6.2909,0,0,0,-6.215,-6.2311,-6.2172,-6.2345,-6.2193,-6.2323,-6.2218,-6.2313,-6.2361,-6.2279,-6.2578,-6.2584,-6.2724,-6.2789,-6.29,-6.3011,-6.3062,0,0,-6.2381,-6.234,-6.2438,-6.2316,-6.2484,-6.2312,-6.2504,-6.2501,-6.2458,-6.2546,-6.2553,-6.2739,-6.2797,-6.2907,-6.3332,-6.3373,0,0,0,-6.2529,-6.26,-6.2633,-6.2682,-6.2685,-6.2693,-6.2655,-6.2655,-6.2727,-6.2513,-6.2808,-6.2841,-6.2903,-6.2954,-6.2989,-6.3039,-6.261,-6.2609,-6.2609,-6.2927,-6.2865,-6.3023,-6.2967,-6.3017,-6.2978,-6.3012,-6.3005,-6.2926,-6.2998,-6.3022,-6.3288,-6.3349,-6.3375,-6.3428,-6.3077,-6.3077,-6.3078,-6.3078,-6.3259,-6.335,-6.3245,-6.3361,-6.3295,-6.3392,-6.3363,-6.3305,-6.3386,-6.3263,-6.3315,-6.3186,-6.3422,-6.3465,-6.309,-6.3088,-6.3086,-6.3085,-6.3085,-6.3512,-6.3545,-6.3542,-6.3608,-6.3667,-6.3606,-6.3689,-6.3626,-6.3568,-6.3619,-6.3639,-6.3637,-6.3625,-6.3634,-6.3635,-6.3636,-6.3636,-6.3637,-6.3638,-6.3774,-6.3766,-6.3844,-6.3863,-6.3887,-6.3912,-6.3878,-6.39,-6.3909,-6.3857,-6.3857,-6.3773,-6.3457,-6.3378,-6.3652,-6.3649,-6.3647,-6.3646,-6.3645,-6.4132,-6.4042,-6.4162,-6.4188,-6.4205,-6.4269,-6.4189,-6.4242,-6.4251,-6.4295,-6.4201,-6.3978,-6.3932,-6.3904,-6.3838,-6.4214,-6.4214,-6.4214,-6.4214,-6.4345,-6.4316,-6.4426,-6.4471,-6.4507,-6.4448,-6.4588,-6.4565,-6.4526,-6.4529,-6.4466,-6.4374,-6.4348,-6.4317,-6.428,-6.4218,-6.4682,-6.4682,-6.4683,-6.4561,-6.4534,-6.4664,-6.4625,-6.4636,-6.4647,-6.4777,-6.4834,-6.4771,-6.47,-6.453,-6.451,-6.4361,-6.4316,-6.4239,-6.4183,-6.4068,0,0]},{"header":{"parameterUnit":"m.s-1","parameterCategory":1,"la1":30.2992,"la2":30.254,"lo1":-89.0895,"lo2":-89.0443,"dy":0.0025,"dx":0.0025,"nx":19,"ny":19,"refTime":"2026-04-10T09:00:00:Z","depth":0,"parameterNumber":3,"parameterNumberName":"V-component_of_WINDS"},"data":[0,0,0,1.6221,1.6222,1.6254,1.6254,1.6264,1.6264,0,0,0,0,0,0,0,0,0,0,0,1.6194,1.6193,1.6221,1.6222,1.6254,1.6254,1.6264,1.6264,0,0,0,0,0,0,0,0,0,0,0,1.6194,1.6193,1.6193,1.6222,1.6254,1.6254,1.6264,1.625,0,0,0,0,0,0,0,0,0,0,1.6225,1.6181,1.6194,1.6193,1.6222,1.6254,1.6254,1.625,1.6251,1.6236,0,1.6219,0,1.6241,1.6262,1.6262,0,0,0,1.6235,1.618,1.6206,1.6193,1.6222,1.6254,1.6243,1.6251,1.6252,1.6237,1.6219,1.622,1.6241,1.6262,1.6262,1.6133,1.6132,0,0,1.6233,1.6189,1.6205,1.6206,1.62,1.6242,1.6244,1.6252,1.6229,1.6219,1.6221,1.6241,1.6262,1.6262,1.6135,1.6133,0,0,0,1.6219,1.6187,1.6213,1.6204,1.6213,1.6242,1.6245,1.6229,1.6241,1.6221,1.6242,1.6262,1.6262,1.6136,1.6134,1.6031,0,0,0,1.6219,1.618,1.6212,1.6185,1.6212,1.6221,1.622,1.624,1.6243,1.6242,1.6262,1.6261,1.6137,1.6135,1.6036,1.5988,0,0,0,1.6198,1.6177,1.6176,1.6183,1.6196,1.6222,1.6235,1.6242,1.6254,1.6262,1.6261,1.6138,1.6135,1.6042,1.5996,1.594,0,0,0,1.6162,1.6083,1.6173,1.6093,1.6195,1.6159,1.6236,1.6211,1.6206,1.6262,1.6137,1.6134,1.6043,1.6002,1.5945,1.5882,1.5853,0,0,1.6037,1.6066,1.6023,1.6105,1.6041,1.6158,1.608,1.6115,1.6156,1.6138,1.6136,1.6034,1.5997,1.5941,1.5708,1.5684,0,0,0,1.5968,1.5935,1.5929,1.5922,1.5949,1.5967,1.6021,1.6034,1.6022,1.6138,1.6002,1.5981,1.595,1.5921,1.5901,1.5876,1.612,1.6121,1.6121,1.5725,1.5783,1.5714,1.5776,1.5769,1.5826,1.5825,1.5853,1.5912,1.5879,1.5872,1.5725,1.569,1.5675,1.5649,1.5847,1.5847,1.5846,1.5846,1.5545,1.5508,1.5591,1.5554,1.5615,1.5584,1.5637,1.568,1.5659,1.5734,1.5709,1.5783,1.5648,1.5627,1.5839,1.584,1.5841,1.5842,1.5842,1.539,1.5382,1.5402,1.54,1.5391,1.5458,1.5434,1.5492,1.5546,1.5522,1.5521,1.5522,1.5529,1.5518,1.5517,1.5517,1.5517,1.5516,1.5516,1.522,1.5246,1.522,1.5244,1.5248,1.526,1.5318,1.5324,1.5344,1.5387,1.5387,1.5448,1.5625,1.5666,1.5508,1.5509,1.551,1.5511,1.5512,1.501,1.5068,1.5027,1.5031,1.5064,1.5051,1.5127,1.5133,1.5146,1.5132,1.5201,1.5323,1.5355,1.5372,1.5406,1.519,1.519,1.519,1.519,1.4877,1.4901,1.4873,1.4875,1.4885,1.495,1.4901,1.4946,1.5001,1.5012,1.5053,1.5105,1.512,1.5143,1.5165,1.5198,1.4933,1.4933,1.4933,1.475,1.4778,1.4725,1.4782,1.4813,1.4837,1.4793,1.4792,1.4867,1.4923,1.5022,1.5033,1.5118,1.5143,1.5196,1.5228,1.529,0,0]}]]